Hourly Data Report for October 06, 2017

All times are specified in Local Standard Time (LST). Add 1 hour to adjust for Daylight Saving Time where and when it is observed.

SHEARWATER RCS
NOVA SCOTIA

44°37'47.000" N
63°30'48.000" W
24.00 m
8205092
71264
AAW

Download Data

Hourly Data (October 2017)
Hourly Data Report for October 6, 2017
Temp Definition
°C
Dew Point Temp Definition
°C
Rel Hum Definition
%
Wind Dir Definition
10's deg

Wind Spd Definition
km/h
Visibility Definition
km
Stn Press Definition
kPa
Hmdx Definition


Wind Chill Definition


Weather Definition


TIME
00:00 13.9 8.2 69 28 7   101.22     LegendNANA
01:00 13.4 8.3 71 26 6   101.20     LegendNANA
02:00 11.4 8.7 83 21 5   101.17     LegendNANA
03:00 12.2 9.9 86 24 4   101.16     LegendNANA
04:00 13.9 12.3 90 26 7   101.19     LegendNANA
05:00 13.5 11.7 89 24 9   101.19     LegendNANA
06:00 13.2 11.3 89 26 9   101.26     LegendNANA
07:00 13.0 11.0 88 27 9   101.31     LegendNANA
08:00 13.8 11.0 83 28 6   101.36     LegendNANA
09:00 15.2 10.3 72 31 12   101.39     LegendNANA
10:00 16.1 8.8 62 30 12   101.41     LegendNANA
11:00 17.8 8.7 55 29 10   101.38     LegendNANA
12:00 18.3 7.1 48 29 11   101.37     LegendNANA
13:00 19.4 6.9 44 28 11   101.35     LegendNANA
14:00 18.6 6.7 46 25 15   101.34     LegendNANA
15:00 16.4 10.3 67 23 14   101.44     LegendNANA
16:00 15.5 11.4 76 25 7   101.43     LegendNANA
17:00 15.2 11.6 79 23 6   101.45     LegendNANA
18:00 14.8 10.4 75 24 5   101.45     LegendNANA
19:00 14.3 10.7 79 22 7   101.49     LegendNANA
20:00 14.3 10.4 77 25 7   101.54     LegendNANA
21:00 14.0 10.6 80 28 5   101.60     LegendNANA
22:00 13.9 10.7 81 33 4   101.66     LegendNANA
23:00 13.5 10.2 80 29 7   101.72     LegendNANA

Notes on Data Quality.

Legend

  • E = Estimated
  • M = Missing
  • NA = Not Available
  • ‡ = Partner data that is not subject to review by the National Climate Archives
Date modified: